Regional Weather Roundup
Issued by NWS Wakefield, VA

Home | Current Version | Previous Version | Graphics & Text | Print | Product List | Glossary On
Versions: 1 2 3 4 5 6 7 8 9 10 11 12 13 14 15 16 17 18 19 20 21 22 23 24 25 26 27 28 29 30 31 32 33 34 35 36 37 38 39 40 41 42 43 44 45 46 47 48 49 50
000
ASUS41 KAKQ 270210
RWRAKQ

REGIONAL WEATHER ROUNDUP
NATIONAL WEATHER SERVICE WAKEFIELD VA
900 PM EST MON JAN 26 2015

Note: "fair" indicates few or no clouds below 12,000 feet with no
significant weather and/or obstructions to visibility. * = Denotes
station may not report precipitation (e.g., rain,snow,etc.),
thunder or fog.

VAZ042-051-052>054-056-270300-
NORTHERN VIRGINIA

CITY           SKY/WX    TMP DP  RH WIND       PRES   REMARKS
WASH NATIONAL  LGT SNOW  32  27  80 NW13      29.77R WCI  22
DULLES         LGT SNOW  27  23  86 N13       29.77R VSB 3/4 WCI  16
FORT BELVOIR   MIX PCPN  28  25  86 NW14      29.76R FOG     WCI  17
QUANTICO       LGT RAIN  30  26  85 N12       29.77R WCI  20
FREDERICKSBRG* CLOUDY    31  30  96 NW14      29.75R WCI  21
STAFFORD*      LGT SNOW  29  29 100 CALM      29.79S
WARRENTON      LGT SNOW  31  31 100 NW13      29.75S WCI  21
CULPEPER*      LGT SNOW  30  30 100 N9        29.77R
MANASSAS*      NOT AVBL
LEESBURG*      LGT SNOW  28  28 100 N8        29.79S
WINCHESTER     LGT SNOW  28  23  80 CALM      29.79R
FRONT ROYAL*   CLOUDY    27  27 100 NE3       29.78R
LURAY*         LGT SNOW  30  30 100 NE5       29.76S
$$

VAZ048-049-060>072-079>083-270300-
CENTRAL AND SOUTH CENTRAL VIRGINIA

CITY           SKY/WX    TMP DP  RH WIND       PRES   REMARKS
RICHMOND       CLOUDY    35  32  88 N13G22    29.69S
CHESTERFIELD*  CLOUDY    36  21  55 N10       29.71R
PETERSBURG*    CLOUDY    36  35  93 NW9G16    29.69S
HANOVER        CLOUDY    33  31  92 VRB6      29.72S FOG
TAPPAHANNOCK*  LGT SNOW  34  31  88 NW6       29.70S
QUINTON*       CLOUDY    33  32  94 N7        29.69S
CHARLOTTSVILLE LGT SNOW  32  29  88 NE7       29.73R FOG
GORDONSVILLE*  CLOUDY    31  28  90 NE8       29.73S FOG
ORANGE*        LGT SNOW  32  30  93 N12       29.76R WCI  23
LOUISA*        LGT SNOW  32  28  86 N10       29.72R WCI  24
BUMPASS*       CLOUDY    32  29  90 N5        29.72S
FARMVILLE*     LGT RAIN  36  36 100 N6        29.71R
CREWE*         CLOUDY    34  33  95 N6        29.70R
FORT PICKETT*  CLOUDY    35  34  97 NW12      29.69R
CHASE CITY*    CLOUDY    39  39 100 NW7       29.69S
CLARKSVILLE*   CLOUDY    37  37 100 N8        29.69R
SOUTH HILL*    CLOUDY    37  36  95 N8        29.73S
LAWRENCEVILLE* CLOUDY    37  36  94 NW9       29.67S
EMPORIA*       CLOUDY    37  36  93 NW15      29.68S
$$

VAZ088>098-270300-
SOUTHEAST VIRGINIA

CITY           SKY/WX    TMP DP  RH WIND       PRES   REMARKS
NORFOLK        CLOUDY    39  35  86 NW13G21   29.61R
VIRGINIA BEACH CLOUDY    41  36  82 N28G35    29.59S
NORFOLK NAVAL  CLOUDY    42  35  76 N16       29.63S
WEST POINT*    CLOUDY    37  33  84 NW7       29.68S
SALUDA*        CLOUDY    35  32  88 N14       29.65R
NEWPORT NEWS   CLOUDY    40  34  79 N15G21    29.64R
LANGLEY AFB    CLOUDY    37  34  87 N17G24    29.62R
FORT EUSTIS    CLOUDY    37  37  99 NE9G21    29.63R
WILLIAMSBURG*    N/A     39  36  87 N13G18    29.66R
HR EXEC AP*    CLOUDY    39  34  81 N9        29.64S
FRANKLIN*      CLOUDY    38  35  90 NW9G17    29.65R
WAKEFIELD      CLOUDY    38  33  82 N6        29.66R
$$

VAZ020-022-025-037-045-270300-
WEST CENTRAL AND SOUTHWEST VIRGINIA

CITY           SKY/WX    TMP DP  RH WIND       PRES   REMARKS
STAUNTON*      LGT SNOW  31  28  88 N12       29.74S WCI  22
WAYNESBORO*    CLOUDY    30  30  99 N7        29.70S
HOT SPRINGS VA LGT SNOW  22  22 100 W20       29.59S WCI   7
LYNCHBURG      CLOUDY    36  36 100 N3        29.71S
DANVILLE       LGT RAIN  41  37  86 N5        29.71R
SOUTH BOSTON*  CLOUDY    38  36  91 N5        29.71R
MARTINSVILLE   CLOUDY    38  26  62 NW13G22   29.75R
ROANOKE        CLOUDY    35  24  64 NW8G20    29.75R
BLACKSBURG     CLOUDY    28  22  78 W8        29.77S
DUBLIN*        CLOUDY    30  25  80 W10       29.78R WCI  21
MARION*        CLOUDY    28  23  83 W15G21    29.80S WCI  16
HILLSVILLE*    CLOUDY    28  23  83 NW20G26   29.71F WCI  14
RICHLANDS*     CLOUDY    23  21  92 NW10G17   29.81S FOG     WCI  12
WISE*          CLOUDY    27  27 100 NW3       29.84S FOG
ABINGDON*      CLOUDY    30  26  85 N10       29.85S WCI  21
$$

MDZ021>025-VAZ099-100-270300-
SOUTHERN MARYLAND AND THE DELMARVA PENINSULA

CITY           SKY/WX    TMP DP  RH WIND       PRES   REMARKS
PATUXENT RIVER FRZ RAIN  32  27  81 N16       29.69R WCI  21
BAY BRIDGE APT   N/A     30  27  86 N9        29.73R
LEONARDTOWN    CLOUDY    32  28  86 N8        29.70S
DOVER          CLOUDY    29  28  98 N16       29.67F WCI  17
GEORGETOWN     CLOUDY    32  28  85 N16G24    29.64S WCI  21
EASTON         LGTSLEET  32  32 100 NE14      29.73R FOG     WCI  22
CAMBRIDGE      CLOUDY    34  32  93 CALM      29.67S
SALISBURY      MIX PCPN  35  31  85 N15G24    29.62S FOG
OCEAN CITY     CLOUDY    37  35  92 N22G33    29.59S FOG
WALLOPS ISLAND LGT RAIN  37  36  96 NE16G24   29.58S FOG
ACCOMACK*      LGT RAIN  36  32  87 N12G22    29.59S
$$

NCZ012>017-030>032-270300-
NORTH CENTRAL AND EASTERN NORTH CAROLINA

CITY           SKY/WX    TMP DP  RH WIND       PRES   REMARKS
ROANOKE RAPIDS CLOUDY    41  37  87 N7        29.65S
RALEIGH        LGT RAIN  43  39  86 N6        29.68S
ELIZABETH CITY CLOUDY    42  38  85 NW20G25   29.59R
AHOSKIE*       CLOUDY    41  37  85 N7        29.65R
EDENTON*       MOCLDY    44  40  85 N13       29.59R
CURRITUCK*     CLOUDY    41  38  86 NW13G18   29.59S
KILL DEVIL HLS CLOUDY    42  41  98 NW9G21    29.55R
MANTEO         CLOUDY    43  39  87 N15       29.56S
CAPE HATTERAS  PTCLDY    46  44  93 NW12G24   29.54F
TARBORO*       CLOUDY    46  42  87 NW12      29.65S
GOLDSBORO      CLOUDY    47  46  98 NW1       29.63S
WASHINGTON     MOCLDY    45  42  91 W6        29.61S
GREENVILLE     CLOUDY    46  43  87 NW7       29.66S
NEW BERN       CLOUDY    49  43  80 NW7       29.62S
WILMINGTON     CLOUDY    47  45  93 W7        29.65S
$$

VAZ048-270300-
ELSEWHERE

CITY           SKY/WX    TMP DP  RH WIND       PRES   REMARKS
HARRISBURG PA  LGT SNOW  25  20  81 NE8G17    29.79S FOG
BALTIMORE      LGT SNOW  28  24  85 N7        29.74R
ANNAPOLIS      LGT SNOW  30  26  85 N10       29.74R FOG     WCI  21
ANDREWS AFB    NOT AVBL
PHILADELPHIA   FLURRIES  28  22  78 NE20G32   29.73F WCI  15
HENDERSON NC   DRIZZLE   40  37  88 NW9       29.68S
GREENSBORO     CLOUDY    40  27  59 NW14      29.70R
ROCKY MOUNT    CLOUDY    44  40  85 NW13      29.65S
$$

VAZ100-270300-
MARINE

STATION/POSITION TIME  TEMP    WIND        PRES    WAVE   SWELL
                       AIR SEA DIR/SP/G            HT/PER HT/PER
                 (UTC) (F)     (DEG/KT/KT) (MB)    (FT/S) (FT/S)
BRANDYWINE LGT   0200   32 37              1003.6S
CAPE MAY NJ      0200   35 39              1002.6R
LEWES DE         0200   35 39              1003.6S
15NM E FENWICK I 0200   40 42               999.4R  15/10
OCEAN-CITY-INLET 0200   37 40              1001.4F
WACHAPREAGUE VA  0200   37 43              1001.3F
THOMAS POINT MD  0200   31 37   10/ 20/ 21 1007.4R
COVE POINT MD    0200   31                 1005.1S
SOLOMONS ISLAND  0200      39                N/A
BISHOPS HEAD MD  0200   33 39              1003.5R
PINEY POINT MD   0100          360/ 13/ 15   N/A
CAMBRIDGE MD     0200   31 37              1004.9S
LEWISETTA VA     0200   33 39              1004.9R
RAPPAHANNOCK LGT 0200                      1002.9S
YORK RVR RNG VA  0200   38                 1002.3R
YORKTOWN VA      0200   37 41              1003.4S
DOMINION TERM VA 0200   40                 1003.1R
KIPTOPEKE VA     0200      46                N/A
CHES BAY BRIDGE  0200   39 41              1002.1S
CAPE HENRY VA    0200   39                 1000.9S
CHESAPEAKE LGHT  0100   41     340/ 27/ 28 1001.1R
WILLOUBY STN VA  0200   38                 1003.3F
S CRANEY ISL VA  0200                      1002.9R
CAPE HENRY BUOY  0200      45                N/A     6/ 5
CAPE CHARLES BUO 0200      43                N/A     5/ 7   2/ 7
OFFSHORE WE BUOY 0200      47                N/A     8/ 7   2/11
64NM E OF VA BCH 0200   46 52  330/ 27/ 33  997.3S   7/ 7   2/10
DUCK PIER NC     0200   41 44               999.6S
44100 DUCK FRF   0200      45                N/A     7/ 5   2/13
44056 DUCK FRF   0200      44                N/A     5/ 5
OREGON INLET NC  0200   43 46              1000.5S
HATTERAS NC      0200   48 53              1000.6S
DIAMOND SHLS NC  0200   52 71  330/ 21/ 27  999.4F
CAPE LOOKOUT NC  0100   49     310/ 13/ 15 1001.7R
$$


USA.gov is the U.S. government's official web portal to all federal, state and local government web resources and services.